Location: Anaheim
(33.8350°N, 117.9140°W)
Time: 10:32:15
(UTC-08:00)

Amateur Radio Satellites - All Passes

Search period start: 26 November 2014 10:02
Search period end: 27 November 2014 10:02
Location: Anaheim, 33.8350°N, 117.9140°W

Satellite Date Start Highest point End Downlink Frequencies (MHz)
Time Altitude Azimuth
DX 1 26 Nov 10:03:35 10:07:47 49° 286° (WNW) 10:11:56 434.975-435.025
CANX-2 26 Nov 10:03:41 10:05:30 13° 293° (WNW) 10:07:19 2200.000
NANOSAT C BR1 26 Nov 10:05:03 10:09:19 87° 77° (ENE) 10:13:35 145.865
COMPASS 1 26 Nov 10:05:53 10:08:37 17° 291° (WNW) 10:11:22 437.405
HUMSAT D 26 Nov 10:12:29 10:16:36 57° 100° (E) 10:20:45 437.325/437.525
QB50P1 26 Nov 10:15:02 10:19:17 70° 258° (WSW) 10:23:32 145.935-145.965
TIGRISAT 26 Nov 10:18:59 10:23:02 42° 261° (W) 10:27:04 435.000
BUGSAT 1 26 Nov 10:23:25 10:27:40 68° 259° (WSW) 10:31:54 437.445
CINEMA 3 26 Nov 10:27:46 10:31:10 24° 289° (WNW) 10:34:39 145.822/145.860
ZACube-1 26 Nov 10:32:24 10:36:28 45° 286° (WNW) 10:40:36 437.345
UNISAT 6 26 Nov 10:33:19 10:37:00 28° 263° (W) 10:40:41 437.425
VELOX 1 26 Nov 10:35:04 10:39:29 77° 284° (WNW) 10:43:52 145.980
ESTCUBE 1 26 Nov 10:35:21 10:39:33 36° 98° (E) 10:43:42 437.505/2401.250
POPSAT HIP 1 26 Nov 10:40:21 10:44:13 34° 262° (W) 10:48:06 437.405
TISAT 1 26 Nov 10:50:56 10:51:36 10° 92° (E) 10:52:16 437.305
HO-68 26 Nov 10:57:51 11:00:44 13° 303° (WNW) 11:03:37 435.675
SPROUT 26 Nov 11:00:55 11:02:52 13° 93° (E) 11:04:49 437.525
AISAT 26 Nov 11:01:55 11:05:57 36° 288° (WNW) 11:09:58 437.250
ANTELSAT 26 Nov 11:04:07 11:06:02 13° 267° (W) 11:07:57 437.575/2403.000
UKube-1 26 Nov 11:06:39 11:07:26 10° 295° (WNW) 11:08:13 .
FUNcube-1 26 Nov 11:08:18 11:11:14 18° 290° (WNW) 11:14:12 145.935
CUBEBUG 1 26 Nov 11:12:50 11:17:12 82° 283° (WNW) 11:21:31 437.445
POLYITAN 1 26 Nov 11:16:15 11:18:19 13° 266° (W) 11:20:22 437.675
QB50P2 26 Nov 11:18:18 11:20:09 13° 267° (W) 11:22:01 145.880/145.840
DUCHIFAT 1 26 Nov 11:24:55 11:25:56 11° 267° (W) 11:26:58 145.980
SO-50 26 Nov 11:27:44 11:31:26 21° 51° (NE) 11:35:09 436.795
50 SAT 26 Nov 11:35:01 11:37:38 17° 291° (WNW) 11:40:16 437.505
Oscar 19 26 Nov 11:35:35 11:39:02 19° 66° (ENE) 11:42:29 437.125/150
SWISSCUBE 26 Nov 12:01:10 12:02:04 11° 92° (E) 12:02:58 437.505
YUBILEINY 26 Nov 12:10:15 12:16:52 23° 71° (ENE) 12:23:24 435.215
ESTCUBE 1 26 Nov 12:13:08 12:16:06 17° 292° (WNW) 12:19:03 437.505/2401.250
CUSAT 1 26 Nov 12:20:45 12:23:30 46° 97° (E) 12:26:01 437.405
AUBIESAT-1 26 Nov 12:21:06 12:24:44 21° 98° (E) 12:28:15 437.475
TISAT 1 26 Nov 12:23:37 12:27:40 49° 286° (WNW) 12:31:43 437.305
M-CUBED/EXP-1 PRIME 26 Nov 12:26:19 12:30:25 26° 100° (E) 12:34:23 437.505
ITAMSAT 1 26 Nov 12:29:01 12:33:08 24° 68° (ENE) 12:37:15 435.822/435.867
BEESAT 26 Nov 12:29:37 12:33:18 22° 96° (E) 12:36:58 436.000
PHONESAT 2.4 26 Nov 12:34:50 12:37:17 17° 142° (SE) 12:39:44 2401.200-2431.200
SPROUT 26 Nov 12:35:05 12:39:07 41° 286° (WNW) 12:43:08 437.525
VERMONT LUNAR 26 Nov 12:43:02 12:46:10 28° 146° (SE) 12:49:19 437.305
DANDE 26 Nov 12:48:50 12:51:46 63° 278° (W) 12:54:23 436.750
Gurwin Techsat 1B 26 Nov 13:03:49 13:08:21 30° 69° (ENE) 13:12:53 435.225
SO-50 26 Nov 13:07:32 13:12:09 42° 246° (WSW) 13:16:45 436.795
Oscar 19 26 Nov 13:13:09 13:18:00 43° 261° (W) 13:22:52 437.125/150
RS-15 26 Nov 13:18:00 13:19:36 10° 97° (E) 13:21:11 29.354- 29.394
ITUPSAT 1 26 Nov 13:24:44 13:29:34 89° 103° (ESE) 13:34:21 437.325
SWISSCUBE 26 Nov 13:35:32 13:40:17 63° 285° (WNW) 13:44:59 437.505
STARS 26 Nov 13:42:53 13:45:41 17° 95° (E) 13:48:29 437.465
AUBIESAT-1 26 Nov 13:55:15 13:59:45 37° 293° (WNW) 14:04:06 437.475
M-CUBED/EXP-1 PRIME 26 Nov 14:01:05 14:05:21 30° 294° (WNW) 14:09:31 437.505
YUBILEINY 26 Nov 14:05:39 14:14:11 63° 268° (W) 14:22:41 435.215
BEESAT 26 Nov 14:06:55 14:11:08 31° 289° (WNW) 14:15:18 436.000
ITAMSAT 1 26 Nov 14:07:41 14:12:23 34° 262° (W) 14:17:07 435.822/435.867
PHONESAT 2.4 26 Nov 14:12:02 14:15:44 86° 337° (NNW) 14:19:28 2401.200-2431.200
AO-7 26 Nov 14:14:02 14:21:16 35° 63° (ENE) 14:28:32 29.400- 29.500
VERMONT LUNAR 26 Nov 14:20:58 14:24:31 55° 340° (NNW) 14:28:05 437.305
O/OREOS (USA 219) 26 Nov 14:21:03 14:22:13 11° 58° (ENE) 14:23:22 437.305
KKS-1 26 Nov 14:23:24 14:27:51 81° 102° (ESE) 14:32:17 437.445
MaSat-1 26 Nov 14:33:16 14:36:21 64° 293° (WNW) 14:39:08 437.345
HORYU 2 26 Nov 14:35:10 14:39:34 71° 258° (WSW) 14:44:00 437.375
Gurwin Techsat 1B 26 Nov 14:43:41 14:48:12 28° 263° (W) 14:52:45 435.225
STARS 26 Nov 15:18:15 15:22:14 34° 288° (WNW) 15:26:12 437.465
RS-15 26 Nov 15:18:59 15:29:53 70° 114° (ESE) 15:40:41 29.354- 29.394
JAS-2 26 Nov 15:19:39 15:26:03 31° 65° (ENE) 15:32:38 435.910
MOZHAYETS 4 26 Nov 15:35:35 15:36:26 10° 91° (E) 15:37:18
PHONESAT 2.4 26 Nov 15:51:28 15:54:50 31° 351° (N) 15:58:11 2401.200-2431.200
O/OREOS (USA 219) 26 Nov 15:57:35 16:02:00 61° 253° (WSW) 16:06:24 437.305
CUTE-I 26 Nov 15:57:36 15:58:34 11° 62° (ENE) 15:59:33 437.470
VERMONT LUNAR 26 Nov 16:00:15 16:03:25 27° 357° (N) 16:06:35 437.305
AO-7 26 Nov 16:05:56 16:13:45 46° 259° (W) 16:21:40 29.400- 29.500
Cubesat XI-IV 26 Nov 16:51:48 16:56:45 39° 71° (ENE) 17:01:42 437.490
JAS-2 26 Nov 17:03:19 17:10:34 52° 261° (W) 17:18:13 435.910
MOZHAYETS 4 26 Nov 17:09:23 17:13:59 60° 285° (WNW) 17:18:32
PHONESAT 2.4 26 Nov 17:30:50 17:34:12 31° 9° (N) 17:37:33 2401.200-2431.200
CUTE-I 26 Nov 17:32:30 17:37:52 84° 257° (WSW) 17:43:15 437.470
PCSat 26 Nov 17:33:19 17:35:08 12° 102° (ESE) 17:36:57 145.827
RS-15 26 Nov 17:33:43 17:43:03 31° 315° (NW) 17:52:28 29.354- 29.394
VERMONT LUNAR 26 Nov 17:39:02 17:42:26 37° 14° (NNE) 17:45:50 437.305
GONETS M04 26 Nov 18:00:13 18:07:23 27° 72° (ENE) 18:14:28
STRAND 1 26 Nov 18:04:30 18:09:00 31° 97° (E) 18:13:28 437.568
PRISM 26 Nov 18:05:15 18:09:29 81° 283° (WNW) 18:13:41 437.425
Cubesat XI-IV 26 Nov 18:32:52 18:36:54 22° 265° (W) 18:40:57 437.490
CUBESAT XI-V 26 Nov 18:52:58 18:57:36 68° 284° (WNW) 19:02:11 437.345
BEESAT 3 26 Nov 18:55:28 18:59:15 39° 114° (ESE) 19:03:06 437.485
BRITE-PL 26 Nov 19:01:12 19:04:04 16° 69° (ENE) 19:06:50 437.365/2234.400
AIST 1 26 Nov 19:07:04 19:11:25 67° 94° (E) 19:15:49
PHONESAT 2.4 26 Nov 19:09:33 19:13:17 87° 24° (NNE) 19:16:59 2401.200-2431.200
BEESAT 2 26 Nov 19:11:22 19:15:21 55° 115° (ESE) 19:19:25 435.950
PCSat 26 Nov 19:12:28 19:17:50 72° 297° (WNW) 19:23:16 145.827
CANX-2 26 Nov 19:16:12 19:19:21 21° 70° (ENE) 19:22:30 2200.000
VERMONT LUNAR 26 Nov 19:17:28 19:21:02 57° 209° (SSW) 19:24:35 437.305
COMPASS 1 26 Nov 19:18:59 19:21:16 15° 68° (ENE) 19:23:32 437.405
DOVE 4 26 Nov 19:21:40 19:23:19 12° 68° (ENE) 19:24:57 437.250
HO-68 26 Nov 19:30:56 19:37:49 52° 69° (ENE) 19:44:44 435.675
STRAND 1 26 Nov 19:43:53 19:48:00 25° 292° (WNW) 19:52:06 437.568
AIST 2 26 Nov 19:49:25 19:53:35 71° 116° (ESE) 19:57:50 435.215
CUTE 1.7 + AOD 2 26 Nov 19:49:42 19:53:44 48° 75° (ENE) 19:57:49 437.475
CINEMA 3 26 Nov 19:50:28 19:52:48 14° 69° (ENE) 19:55:06 145.822/145.860
GONETS M04 26 Nov 19:56:02 20:04:34 57° 270° (W) 20:13:02
RS-15 26 Nov 19:58:36 20:00:43 11° 349° (N) 20:02:51 29.354- 29.394
GOMX 1 26 Nov 20:04:21 20:09:04 52° 75° (ENE) 20:13:28 467.674
UKube-1 26 Nov 20:19:18 20:23:06 30° 71° (ENE) 20:26:55 .
SEEDS 26 Nov 20:21:27 20:25:37 78° 258° (WSW) 20:29:50 437.485
FUNcube-1 26 Nov 20:25:17 20:27:44 15° 69° (ENE) 20:30:10 145.935
Oscar 11 26 Nov 20:29:35 20:33:40 44° 74° (ENE) 20:37:46 145.826/435.025
BEESAT 3 26 Nov 20:34:59 20:37:37 16° 309° (NW) 20:40:17 437.485
AAUSAT CUBESAT 2 26 Nov 20:36:30 20:40:38 69° 259° (W) 20:44:47 437.432
BRITE-PL 26 Nov 20:37:20 20:42:16 47° 260° (W) 20:46:50 437.365/2234.400
DELFI C3 26 Nov 20:37:24 20:41:16 44° 74° (ENE) 20:45:10 145.870
50 SAT 26 Nov 20:46:19 20:47:58 12° 67° (ENE) 20:49:38 437.505
PHONESAT 2.4 26 Nov 20:49:19 20:51:44 17° 218° (SW) 20:54:09 2401.200-2431.200
CANX-2 26 Nov 20:51:37 20:55:07 25° 264° (W) 20:58:38 2200.000
UWE-3 26 Nov 20:52:03 20:56:00 38° 74° (ENE) 20:59:53 435.000/436.395/437.385
BEESAT 2 26 Nov 20:52:06 20:53:58 13° 311° (NW) 20:55:51 435.950
COMPASS 1 26 Nov 20:52:48 20:56:39 37° 262° (W) 21:00:32 437.405
CUBEBUG 2 26 Nov 20:53:34 20:57:42 48° 75° (ENE) 21:01:44 437.445
DX 1 26 Nov 20:55:07 20:59:30 86° 77° (ENE) 21:03:54 434.975-435.025
DOVE 4 26 Nov 20:56:07 21:00:42 53° 260° (W) 21:05:02 437.250
HUMSAT D 26 Nov 21:01:52 21:05:13 24° 71° (ENE) 21:08:33 437.325/437.525
ISS 26 Nov 21:12:46 21:14:44 15° 127° (SE) 21:16:43 145.825
HO-68 26 Nov 21:20:02 21:25:43 25° 264° (W) 21:31:26 435.675
ANTELSAT 26 Nov 21:22:49 21:24:44 12° 93° (E) 21:26:40 437.575/2403.000
ZACube-1 26 Nov 21:24:42 21:28:56 85° 77° (ENE) 21:33:07 437.345
CINEMA 3 26 Nov 21:25:32 21:29:42 40° 261° (W) 21:33:44 145.822/145.860
CUTE 1.7 + AOD 2 26 Nov 21:29:01 21:29:54 11° 268° (W) 21:30:47 437.475
VELOX 1 26 Nov 21:29:03 21:33:27 59° 75° (ENE) 21:37:51 145.980
AIST 2 26 Nov 21:31:31 21:32:41 11° 313° (NW) 21:33:52 435.215
ESTCUBE 1 26 Nov 21:32:03 21:35:33 22° 69° (ENE) 21:39:04 437.505/2401.250
JUGNU 26 Nov 21:35:29 21:37:22 12° 164° (SSE) 21:39:15 437.505
DUCHIFAT 1 26 Nov 21:37:51 21:38:43 11° 92° (E) 21:39:35 145.980
GOMX 1 26 Nov 21:45:26 21:47:19 12° 266° (W) 21:49:10 467.674
NANOSAT C BR1 26 Nov 21:55:29 21:58:29 19° 95° (E) 22:01:28 145.865
AISAT 26 Nov 21:55:53 22:00:20 65° 259° (WSW) 22:04:47 437.250
UKube-1 26 Nov 21:56:12 21:59:15 19° 265° (W) 22:02:20 .
FUNcube-1 26 Nov 21:59:56 22:03:47 35° 262° (W) 22:07:37 145.935
QB50P1 26 Nov 22:05:07 22:08:36 25° 97° (E) 22:12:03 145.935-145.965
CUBEBUG 1 26 Nov 22:05:16 22:09:34 50° 74° (ENE) 22:13:52 437.445
Oscar 11 26 Nov 22:08:17 22:10:01 12° 267° (W) 22:11:46 145.826/435.025
BUGSAT 1 26 Nov 22:10:52 22:14:04 22° 96° (E) 22:17:15 437.445
RS-15 26 Nov 22:13:55 22:20:24 17° 29° (NNE) 22:26:59 29.354- 29.394
TIGRISAT 26 Nov 22:14:14 22:18:35 50° 100° (E) 22:23:01 435.000
DELFI C3 26 Nov 22:15:50 22:16:46 11° 268° (W) 22:17:43 145.870
50 SAT 26 Nov 22:19:05 22:22:54 40° 261° (W) 22:26:42 437.505
UNISAT 6 26 Nov 22:28:21 22:32:51 77° 102° (ESE) 22:37:25 437.425
POPSAT HIP 1 26 Nov 22:29:32 22:33:38 50° 100° (E) 22:37:44 437.405
UWE-3 26 Nov 22:30:36 22:32:39 13° 266° (W) 22:34:42 435.000/436.395/437.385
CUBEBUG 2 26 Nov 22:33:38 22:34:36 11° 267° (W) 22:35:33 437.445
HUMSAT D 26 Nov 22:37:50 22:40:57 21° 264° (W) 22:44:03 437.325/437.525
ISS 26 Nov 22:48:03 22:51:07 37° 321° (NW) 22:54:13 145.825
ANTELSAT 26 Nov 22:57:24 23:01:43 49° 286° (WNW) 23:06:07 437.575/2403.000
CUSAT 1 26 Nov 23:00:28 23:05:16 39° 81° (E) 23:11:28 437.405
POLYITAN 1 26 Nov 23:03:42 23:07:51 58° 285° (WNW) 23:12:00 437.675
QB50P2 26 Nov 23:05:19 23:09:28 55° 285° (WNW) 23:13:36 145.880/145.840
AUBIESAT-1 26 Nov 23:08:16 23:10:22 14° 60° (ENE) 23:12:32 437.475
ESTCUBE 1 26 Nov 23:08:20 23:12:14 28° 263° (W) 23:16:11 437.505/2401.250
DUCHIFAT 1 26 Nov 23:10:46 23:14:49 48° 286° (WNW) 23:18:51 145.980
TISAT 1 26 Nov 23:12:09 23:16:24 73° 76° (ENE) 23:20:40 437.305
M-CUBED/EXP-1 PRIME 26 Nov 23:13:32 23:16:14 17° 62° (ENE) 23:19:04 437.505
JUGNU 26 Nov 23:21:38 23:25:40 19° 174° (S) 23:29:43 437.505
SPROUT 26 Nov 23:25:08 23:29:28 89° 76° (ENE) 23:33:48 437.525
DANDE 26 Nov 23:30:35 23:35:28 63° 82° (E) 23:42:05 436.750
NANOSAT C BR1 26 Nov 23:30:45 23:34:20 28° 289° (WNW) 23:37:56 145.865
BEESAT 26 Nov 23:33:20 23:36:25 17° 67° (ENE) 23:39:30 436.000
SRMSAT 26 Nov 23:35:08 23:38:16 15° 167° (SSE) 23:41:23 437.500
QB50P1 26 Nov 23:41:07 23:44:20 22° 290° (WNW) 23:47:32 145.935-145.965
CUBEBUG 1 26 Nov 23:44:40 23:46:10 12° 267° (W) 23:47:40 437.445
BUGSAT 1 26 Nov 23:46:20 23:49:27 22° 290° (WNW) 23:52:32 437.445
TIGRISAT 26 Nov 23:52:56 23:54:54 13° 293° (WNW) 23:56:53 435.000
POPSAT HIP 1 27 Nov 00:07:48 00:09:04 11° 294° (WNW) 00:10:21 437.405
MaSat-1 27 Nov 00:15:05 00:17:23 55° 67° (ENE) 00:19:48 437.345
RS-15 27 Nov 00:24:51 00:35:55 57° 56° (NE) 00:47:26 29.354- 29.394
ITUPSAT 1 27 Nov 00:27:43 00:32:28 66° 75° (ENE) 00:37:15 437.325
SWISSCUBE 27 Nov 00:38:11 00:42:59 85° 258° (WSW) 00:47:49 437.505
AUBIESAT-1 27 Nov 00:41:03 00:44:50 44° 257° (WSW) 00:49:00 437.475
CUSAT 1 27 Nov 00:44:07 00:48:19 24° 266° (W) 00:53:24 437.405
M-CUBED/EXP-1 PRIME 27 Nov 00:47:20 00:50:56 33° 259° (W) 00:54:52 437.505
ITAMSAT 1 27 Nov 00:48:10 00:49:14 11° 92° (E) 00:50:18 435.822/435.867
YUBILEINY 27 Nov 01:06:09 01:13:32 31° 85° (E) 01:20:52 435.215
BEESAT 27 Nov 01:09:23 01:13:53 42° 261° (W) 01:18:26 436.000
JUGNU 27 Nov 01:09:51 01:14:03 20° 184° (S) 01:18:15 437.505
DANDE 27 Nov 01:16:22 01:18:55 13° 267° (W) 01:21:47 436.750
KKS-1 27 Nov 01:18:00 01:22:14 44° 73° (ENE) 01:26:27 437.445
SRMSAT 27 Nov 01:22:28 01:26:46 21° 177° (S) 01:31:05 437.500
Gurwin Techsat 1B 27 Nov 01:24:53 01:28:02 16° 93° (E) 01:31:10 435.225
Oscar 19 27 Nov 01:28:18 01:33:29 90° 277° (W) 01:38:40 437.125/150
SO-50 27 Nov 01:40:40 01:42:48 13° 107° (ESE) 01:44:58 436.795
STARS 27 Nov 02:11:13 02:15:35 65° 259° (WSW) 02:19:57 437.465
AO-7 27 Nov 02:23:20 02:25:53 12° 91° (E) 02:28:24 29.400- 29.500
ITAMSAT 1 27 Nov 02:23:59 02:29:08 70° 285° (WNW) 02:34:15 435.822/435.867
HORYU 2 27 Nov 02:31:03 02:35:01 30° 98° (E) 02:38:57 437.375
RS-15 27 Nov 02:37:51 02:47:48 37° 254° (WSW) 02:58:11 29.354- 29.394
KKS-1 27 Nov 02:56:55 02:59:02 13° 267° (W) 03:01:10 437.445
JUGNU 27 Nov 02:59:33 03:02:23 14° 194° (SSW) 03:05:14 437.505
YUBILEINY 27 Nov 03:01:28 03:09:53 49° 282° (WNW) 03:18:19 435.215
Gurwin Techsat 1B 27 Nov 03:03:06 03:08:14 51° 287° (WNW) 03:13:20 435.225
SRMSAT 27 Nov 03:11:15 03:15:19 19° 187° (S) 03:19:23 437.500
SO-50 27 Nov 03:18:29 03:22:50 50° 302° (WNW) 03:27:19 436.795
BEESAT 2 27 Nov 03:36:55 03:38:50 13° 49° (NE) 03:40:44 435.950
PCSat 27 Nov 04:04:29 04:09:34 40° 59° (ENE) 04:14:37 145.827
MOZHAYETS 4 27 Nov 04:07:19 04:11:53 81° 77° (ENE) 04:16:31
HORYU 2 27 Nov 04:08:08 04:11:28 21° 291° (WNW) 04:14:48 437.375
AO-7 27 Nov 04:11:14 04:19:38 79° 106° (ESE) 04:28:00 29.400- 29.500
AIST 2 27 Nov 04:16:14 04:19:00 16° 50° (NE) 04:21:43 435.215
JAS-2 27 Nov 04:19:07 04:25:00 31° 94° (E) 04:30:16 435.910
O/OREOS (USA 219) 27 Nov 04:27:33 04:31:08 24° 102° (ESE) 04:34:42 437.305
PRISM 27 Nov 04:52:22 04:56:20 43° 73° (ENE) 05:00:21 437.425
BEESAT 3 27 Nov 04:56:46 05:00:57 80° 243° (WSW) 05:05:04 437.485
SRMSAT 27 Nov 05:02:13 05:03:47 11° 196° (SSW) 05:05:22 437.500
BEESAT 2 27 Nov 05:13:21 05:17:28 56° 245° (WSW) 05:21:31 435.950
Cubesat XI-IV 27 Nov 05:13:46 05:17:45 21° 95° (E) 05:21:43 437.490
STRAND 1 27 Nov 05:16:43 05:21:11 31° 70° (ENE) 05:25:40 437.568
ISS 27 Nov 05:19:28 05:22:33 36° 39° (NE) 05:25:38 145.825
AIST 1 27 Nov 05:20:57 05:22:26 12° 73° (ENE) 05:23:55
PCSat 27 Nov 05:48:31 05:52:41 23° 254° (WSW) 05:56:49 145.827
CUBESAT XI-V 27 Nov 05:52:17 05:56:59 74° 76° (ENE) 06:01:42 437.345
AIST 2 27 Nov 05:53:46 05:57:49 42° 246° (WSW) 06:01:48 435.215
CUTE-I 27 Nov 05:53:49 05:59:01 54° 101° (E) 06:04:11 437.470
JAS-2 27 Nov 06:03:52 06:10:02 36° 293° (WNW) 06:15:33 435.910
AO-7 27 Nov 06:05:46 06:11:29 21° 303° (WNW) 06:17:12 29.400- 29.500
O/OREOS (USA 219) 27 Nov 06:06:40 06:10:23 25° 296° (WNW) 06:14:06 437.305
PRISM 27 Nov 06:30:23 06:32:03 12° 267° (W) 06:33:44 437.425
Cubesat XI-IV 27 Nov 06:53:00 06:57:54 39° 289° (WNW) 07:02:47 437.490
STRAND 1 27 Nov 06:56:05 07:00:18 26° 264° (W) 07:04:33 437.568
GONETS M04 27 Nov 06:56:08 07:03:48 35° 86° (E) 07:11:30
AIST 1 27 Nov 06:56:10 07:00:21 45° 267° (W) 07:04:28
ISS 27 Nov 06:56:51 06:58:58 16° 232° (SW) 07:01:04 145.825
CUTE-I 27 Nov 07:35:25 07:38:35 16° 295° (WNW) 07:41:45 437.470
CUTE 1.7 + AOD 2 27 Nov 07:41:21 07:42:51 12° 92° (E) 07:44:20 437.475
SEEDS 27 Nov 08:10:48 08:14:15 23° 96° (E) 08:17:41 437.485
GOMX 1 27 Nov 08:10:58 08:13:52 18° 96° (E) 08:16:50 467.674
Oscar 11 27 Nov 08:23:27 08:24:39 11° 92° (E) 08:25:50 145.826/435.025
AAUSAT CUBESAT 2 27 Nov 08:24:38 08:28:09 25° 96° (E) 08:31:38 437.432
CANX-2 27 Nov 08:40:14 08:44:32 72° 101° (E) 08:48:50 2200.000
COMPASS 1 27 Nov 08:40:30 08:44:35 45° 99° (E) 08:48:40 437.405
BRITE-PL 27 Nov 08:45:56 08:50:05 72° 101° (ESE) 08:54:21 437.365/2234.400
DX 1 27 Nov 08:48:34 08:51:43 20° 96° (E) 08:54:52 434.975-435.025
UWE-3 27 Nov 08:48:36 08:49:24 10° 93° (E) 08:50:13 435.000/436.395/437.385
HO-68 27 Nov 08:50:05 08:57:17 78° 104° (ESE) 09:04:25 435.675
CUBEBUG 2 27 Nov 08:50:09 08:52:20 14° 94° (E) 08:54:32 437.445
GONETS M04 27 Nov 08:52:06 09:00:19 43° 283° (WNW) 09:08:38
QB50P1 27 Nov 08:56:22 08:58:09 13° 67° (ENE) 08:59:56 145.935-145.965
DOVE 4 27 Nov 08:59:01 09:03:07 51° 100° (E) 09:07:23 437.250
BUGSAT 1 27 Nov 08:59:50 09:00:59 11° 66° (ENE) 09:02:08 437.445
TIGRISAT 27 Nov 09:10:14 09:13:48 27° 71° (ENE) 09:17:22 435.000
CUTE 1.7 + AOD 2 27 Nov 09:14:51 09:18:58 46° 286° (WNW) 09:23:05 437.475
ZACube-1 27 Nov 09:18:05 09:21:23 21° 96° (E) 09:24:42 437.345
POPSAT HIP 1 27 Nov 09:19:34 09:22:58 24° 70° (ENE) 09:26:22 437.405
CINEMA 3 27 Nov 09:23:53 09:28:06 59° 101° (E) 09:32:29 145.822/145.860
UNISAT 6 27 Nov 09:24:16 09:28:15 40° 73° (ENE) 09:32:15 437.425
VELOX 1 27 Nov 09:25:27 09:28:01 15° 94° (E) 09:30:34 145.980
SEEDS 27 Nov 09:46:34 09:49:57 23° 289° (WNW) 09:53:21 437.485
UKube-1 27 Nov 09:46:34 09:50:55 82° 284° (WNW) 09:55:13 .
GOMX 1 27 Nov 09:48:24 09:52:00 28° 288° (WNW) 09:55:41 467.674
AISAT 27 Nov 09:51:29 09:55:26 32° 98° (E) 09:59:22 437.250
FUNcube-1 27 Nov 09:51:57 09:56:09 55° 100° (E) 10:00:25 145.935
ANTELSAT 27 Nov 09:52:53 09:57:10 88° 257° (WSW) 10:01:27 437.575/2403.000
POLYITAN 1 27 Nov 09:53:09 09:57:22 62° 76° (ENE) 10:01:34 437.675
